| time (UTC) | temp C | wind direction | speed KPH | gust KPH | rain 1hr cm | rain 24hr cm | rain mn cm | humidity % | barometer mb |
| 20260510020336 | 18 | 80 | 0.0 | 1.6 | 0.00 | 0.00 | 0.00 | 87 | 1018.6 |
| 20260510013357 | 18 | 80 | 0.0 | 1.6 | 0.00 | 0.00 | 0.00 | 86 | 1018.5 |
| 20260510010336 | 19 | 80 | 0.0 | 1.6 | 0.00 | 0.00 | 0.00 | 84 | 1018.5 |
| 20260510003336 | 20 | 80 | 0.0 | 3.2 | 0.00 | 0.00 | 0.00 | 83 | 1018.5 |
| 20260510000351 | 20 | 80 | 1.6 | 1.6 | 0.00 | 0.00 | 0.00 | 81 | 1018.2 |
| 20260509233356 | 20 | 80 | 1.6 | 3.2 | 0.00 | 0.00 | 0.00 | 80 | 1018.0 |
| 20260509230411 | 21 | 65 | 1.6 | 3.2 | 0.00 | 0.00 | 0.00 | 79 | 1017.8 |
| 20260509223349 | 22 | 57 | 1.6 | 1.6 | 0.00 | 0.00 | 0.00 | 75 | 1017.6 |
| 20260509220347 | 23 | 17 | 1.6 | 3.2 | 0.00 | 0.00 | 0.00 | 73 | 1017.5 |
| 20260509213405 | 23 | 341 | 0.0 | 1.6 | 0.00 | 0.00 | 0.00 | 69 | 1017.1 |
| 20260509210336 | 25 | 341 | 0.0 | 1.6 | 0.00 | 0.00 | 0.00 | 66 | 1016.8 |
| 20260509203349 | 26 | 341 | 3.2 | 4.8 | 0.00 | 0.00 | 0.00 | 61 | 1016.7 |
| 20260509200351 | 26 | 341 | 3.2 | 4.8 | 0.00 | 0.00 | 0.00 | 59 | 1016.5 |
| 20260509193410 | 27 | 341 | 3.2 | 4.8 | 0.00 | 0.00 | 0.00 | 59 | 1016.5 |
| 20260509190343 | 27 | 340 | 1.6 | 6.4 | 0.00 | 0.00 | 0.00 | 58 | 1016.5 |
| 20260509183344 | 27 | 326 | 3.2 | 14.5 | 0.00 | 0.00 | 0.00 | 55 | 1016.6 |
| 20260509180345 | 28 | 342 | 4.8 | 16.1 | 0.00 | 0.00 | 0.00 | 54 | 1016.6 |
| 20260509173400 | 29 | 320 | 8.0 | 14.5 | 0.00 | 0.00 | 0.00 | 51 | 1016.5 |
| 20260509170342 | 28 | 319 | 6.4 | 19.3 | 0.00 | 0.00 | 0.00 | 56 | 1016.7 |
| 20260509163358 | 28 | 315 | 11.3 | 19.3 | 0.00 | 0.00 | 0.00 | 54 | 1017.0 |
| 20260509160357 | 27 | 346 | 1.6 | 6.4 | 0.00 | 0.00 | 0.00 | 59 | 1017.5 |
| 20260509153350 | 26 | 69 | 3.2 | 6.4 | 0.00 | 0.00 | 0.00 | 65 | 1018.0 |
| 20260509150344 | 25 | 89 | 3.2 | 4.8 | 0.00 | 0.00 | 0.00 | 65 | 1018.6 |
| 20260509143358 | 26 | 14 | 0.0 | 3.2 | 0.00 | 0.00 | 0.00 | 63 | 1019.0 |
| 20260509140404 | 25 | 5 | 1.6 | 3.2 | 0.00 | 0.00 | 0.00 | 69 | 1019.3 |
| 20260509133420 | 23 | 282 | 1.6 | 3.2 | 0.00 | 0.00 | 0.00 | 71 | 1019.6 |
| 20260509130407 | 22 | 302 | 0.0 | 1.6 | 0.00 | 0.00 | 0.00 | 78 | 1019.7 |
| 20260509123342 | 20 | 296 | 1.6 | 3.2 | 0.00 | 0.00 | 0.00 | 89 | 1020.0 |
| 20260509120405 | 18 | 296 | 1.6 | 1.6 | 0.00 | 0.00 | 0.00 | 91 | 1020.0 |
| 20260509113423 | 17 | 294 | 0.0 | 1.6 | 0.00 | 0.00 | 0.00 | 93 | 1019.6 |
| 20260509113340 | 17 | 294 | 0.0 | 1.6 | 0.00 | 0.00 | 0.00 | 93 | 1019.6 |
| 20260509110345 | 16 | 294 | 0.0 | 1.6 | 0.00 | 0.00 | 0.00 | 93 | 1019.3 |
| 20260509103400 | 16 | 298 | 0.0 | 1.6 | 0.00 | 0.00 | 0.00 | 94 | 1018.8 |
| 20260509100335 | 15 | 298 | 0.0 | 3.2 | 0.00 | 0.00 | 0.00 | 93 | 1018.4 |
| 20260509093358 | 15 | 290 | 0.0 | 1.6 | 0.00 | 0.00 | 0.00 | 93 | 1018.0 |
| 20260509090406 | 15 | 290 | 0.0 | 1.6 | 0.00 | 0.00 | 0.00 | 93 | 1017.6 |
| 20260509083344 | 16 | 290 | 0.0 | 0.0 | 0.00 | 0.00 | 0.00 | 92 | 1017.3 |
| 20260509080350 | 16 | 290 | 0.0 | 1.6 | 0.00 | 0.00 | 0.00 | 92 | 1017.2 |
| 20260509073342 | 16 | 290 | 0.0 | 1.6 | 0.00 | 0.00 | 0.00 | 90 | 1016.9 |
| 20260509070352 | 16 | 288 | 0.0 | 1.6 | 0.00 | 0.00 | 0.00 | 90 | 1016.9 |
| 20260509063345 | 16 | 296 | 0.0 | 1.6 | 0.00 | 0.00 | 0.00 | 91 | 1016.7 |
| 20260509060333 | 16 | 296 | 0.0 | 1.6 | 0.00 | 0.00 | 0.00 | 90 | 1016.5 |
| 20260509053349 | 16 | 296 | 0.0 | 0.0 | 0.00 | 0.00 | 0.00 | 89 | 1016.5 |
| 20260509050354 | 16 | 296 | 0.0 | 1.6 | 0.00 | 0.00 | 0.00 | 90 | 1016.8 |
| 20260509043358 | 16 | 296 | 0.0 | 1.6 | 0.00 | 0.00 | 0.00 | 88 | 1016.8 |
| 20260509040337 | 17 | 296 | 0.0 | 1.6 | 0.00 | 0.00 | 0.00 | 86 | 1016.8 |
| 20260509033335 | 17 | 296 | 0.0 | 1.6 | 0.00 | 0.00 | 0.00 | 86 | 1016.6 |
| 20260509030353 | 18 | 296 | 0.0 | 1.6 | 0.00 | 0.00 | 0.00 | 85 | 1016.8 |
| 20260509023353 | 18 | 296 | 0.0 | 1.6 | 0.00 | 0.00 | 0.00 | 84 | 1016.7 |